Probability
15 12 9 8 8 8 7 6 6 8 8 6 4 4 4 5 6 7 7 5 3 2 2 3 4 4 4 4 2 1 1 1 1 1 1 1 2 2 2 1 1 0 0
16 14 12 10 9 9 8 8 9 10 9 7 6 6 6 6 6 6 5 4 3 3 4 5 5 5 5 4 3 2 2 2 2 2 2 2 3 4 5 4 3 2 1
17 15 13 12 11 11 10 11 13 14 12 10 8 7 7 7 6 7 6 5 5 6 7 8 8 7 6 4 4 3 3 4 3 3 3 3 3 4 7 8 6 5 3
14 13 12 12 12 12 12 13 14 14 13 12 10 9 8 7 8 8 8 7 7 8 9 10 10 9 7 6 5 5 5 5 5 4 4 3 3 4 7 9 8 6 5
11 10 9 10 13 15 14 13 13 12 12 12 12 11 9 9 9 9 9 9 9 9 9 10 10 9 9 9 8 8 8 8 7 6 6 5 4 4 6 8 8 7 6
10 10 10 11 14 15 14 12 10 10 10 11 12 12 10 8 8 8 9 9 10 10 9 9 9 9 10 10 10 9 9 9 8 8 8 7 6 5 5 6 7 7 6
11 11 12 12 13 14 14 12 10 9 9 10 11 11 9 8 7 7 8 9 10 10 9 9 9 10 10 10 10 9 8 8 8 8 8 8 7 5 5 5 6 6 6
12 12 12 12 13 13 13 11 10 9 9 9 10 10 9 8 7 7 8 9 10 10 10 10 11 11 11 10 10 9 9 8 6 6 6 6 5 3 3 4 5 6 6
11 10 11 12 13 12 11 9 9 10 9 9 9 9 9 8 7 7 8 9 10 10 11 11 12 11 10 9 9 10 9 7 5 4 3 3 2 1 1 2 3 4 5
10 10 11 12 12 11 10 8 8 10 9 9 9 9 9 8 7 7 7 9 10 11 12 12 12 11 9 7 7 8 7 5 4 3 2 1 1 0 0 0 2 3 4
10 10 10 11 11 11 10 8 8 9 9 8 9 9 10 9 9 7 7 8 9 10 12 13 12 9 6 4 4 5 4 3 3 3 3 1 0 0 0 0 2 4 4
11 10 10 9 10 10 10 9 8 9 9 8 7 9 10 10 10 9 8 7 8 9 11 12 11 7 3 1 1 2 1 1 1 1 2 2 1 1 0 0 1 3 4
11 10 9 9 9 9 10 9 9 9 9 7 7 7 9 9 9 9 8 6 6 7 7 7 7 4 1 0 0 0 0 0 0 0 1 2 2 2 1 1 2 3 3
9 8 7 8 8 9 9 9 9 9 8 7 6 7 7 7 8 8 7 5 4 3 3 2 2 1 0 0 0 0 0 0 0 0 0 1 2 3 4 4 5 4 4
7 7 6 7 8 8 7 6 6 6 6 5 5 6 6 6 6 6 5 3 2 1 1 1 1 0 0 0 0 0 0 0 0 0 0 0 1 3 5 7 7 6 6
6 6 5 5 6 7 6 4 2 3 3 3 3 4 5 4 4 3 2 2 1 1 1 1 1 0 0 0 0 0 0 0 0 0 0 0 0 2 4 7 7 7 8
5 5 3 3 5 6 5 2 0 1 1 1 1 1 2 2 2 2 1 0 0 0 0 1 1 0 0 0 0 0 0 0 0 0 0 0 0 0 2 3 5 6 7
3 2 1 2 4 5 3 1 0 0 0 0 0 0 0 1 1 1 0 0 0 0 0 1 1 1 1 1 1 1 2 1 1 1 1 2 1 0 0 1 2 3 4
2 1 0 1 2 3 1 0 0 0 0 0 0 1 0 0 0 0 0 0 0 1 1 2 2 2 2 2 2 3 3 3 2 2 2 2 1 0 0 0 0 1 1
3 2 1 1 3 2 0 0 0 0 0 0 1 1 0 0 1 1 1 1 0 1 2 3 3 3 3 3 3 3 2 2 2 2 1 1 1 0 0 0 0 0 0
4 3 3 4 5 4 1 0 0 0 0 1 1 0 0 1 2 2 2 2 1 1 2 3 2 2 2 2 2 1 1 1 1 1 0 0 0 0 0 0 0 0 0
4 5 7 7 7 6 3 1 0 0 0 1 1 0 0 1 2 2 2 2 1 1 1 1 1 1 1 1 1 0 0 0 0 0 0 0 0 0 0 0 0 0 0
4 6 7 7 7 5 2 1 0 0 0 1 1 0 0 0 1 1 1 1 1 0 0 0 0 0 0 0 0 0 0 0 0 0 0 0 0 0 0 0 0 0 0
4 5 5 5 5 3 1 1 1 0 0 1 1 1 0 0 0 0 0 0 0 0 0 0 0 0 0 0 0 0 0 0 0 0 0 0 0 0 0 0 0 0 0
4 4 3 2 3 3 2 2 2 1 0 1 2 1 0 0 0 0 0 0 0 0 0 0 0 0 0 0 0 0 0 0 0 0 0 0 0 0 0 0 0 0 0
3 3 2 1 2 3 3 3 2 1 1 2 2 1 0 0 0 0 0 0 0 0 0 0 0 0 0 0 0 0 0 0 0 0 0 0 0 0 0 0 0 0 0
Wind_Speed
3 3 3 2 2 2 2 2 2 2 2 2 2 1 1 1 1 1 1 1 1 2 1 1 2 2 1 1 1 1 2 2 3 4 2 2 2 3 2 3 3 4 4
4 3 2 2 2 2 2 2 1 2 2 2 1 1 1 1 1 2 2 1 1 2 2 2 2 1 1 1 1 2 2 2 3 4 3 2 2 3 2 3 3 4 4
4 4 3 2 2 2 2 2 2 2 1 1 1 1 1 1 1 1 2 2 2 2 2 2 3 1 2 2 1 2 2 2 1 2 3 2 1 1 1 2 3 2 4
4 4 3 3 3 3 2 2 2 2 2 2 1 1 1 1 1 1 1 1 1 1 2 3 3 3 3 3 2 3 2 2 1 1 2 2 1 1 0 1 2 2 3
4 3 3 3 2 2 2 2 2 2 2 2 1 1 0 1 0 1 1 1 1 1 2 2 2 2 3 2 2 2 1 1 1 1 2 1 1 1 2 2 3 2 3
3 3 2 2 2 2 2 2 2 1 1 2 1 1 0 0 1 1 1 1 1 1 2 2 2 1 2 2 3 3 2 2 2 2 2 2 3 3 2 2 1 1 3
2 2 2 2 2 2 2 1 2 2 2 2 1 1 1 0 0 1 2 1 0 1 2 2 2 2 2 2 3 3 3 3 4 3 3 4 3 3 2 2 2 2 4
2 2 2 2 2 1 2 1 1 2 2 2 2 2 1 0 0 1 1 1 1 2 2 2 2 2 2 2 2 2 3 3 3 3 3 4 4 3 3 3 3 3 3
1 1 2 2 2 2 2 2 2 1 1 1 1 1 1 1 1 1 1 0 1 2 2 1 1 1 3 2 1 2 3 3 3 2 2 3 3 3 2 1 1 1 3
1 2 2 2 2 2 2 2 1 2 2 1 1 1 1 1 2 2 1 0 1 2 2 2 1 2 2 1 1 2 2 3 2 3 3 4 3 3 3 2 3 2 2
1 1 1 2 3 2 1 2 2 2 1 1 1 1 1 1 1 1 1 0 1 2 2 2 2 3 3 3 2 2 4 3 1 1 2 3 3 2 2 2 3 3 3
1 1 0 1 1 2 2 1 1 2 2 1 0 1 1 1 1 1 1 1 1 1 2 2 2 3 3 3 2 2 3 2 1 1 2 3 3 3 3 3 3 4 4
1 1 1 1 1 1 2 2 2 2 2 1 1 1 1 1 1 2 2 2 2 1 2 2 3 3 3 2 3 3 2 1 1 1 2 3 3 3 3 3 3 3 3
2 1 1 1 2 1 1 2 2 2 2 2 2 2 1 1 1 1 1 2 2 2 1 2 3 3 2 2 3 3 1 1 1 1 2 3 3 3 3 2 2 2 2
2 2 1 1 2 1 1 2 2 2 4 4 4 3 2 2 3 2 1 1 1 1 1 1 2 2 3 3 2 2 2 2 1 2 2 3 3 3 3 3 2 2 2
1 2 1 1 1 1 1 0 1 1 2 4 4 4 3 4 3 2 2 1 1 1 2 1 1 1 1 2 2 2 2 2 2 2 2 2 3 3 3 3 2 2 2
2 2 1 1 2 2 2 2 1 2 2 1 2 2 2 1 1 1 1 1 2 4 3 1 1 1 1 1 1 1 2 2 2 2 2 3 3 3 3 3 3 2 3
1 1 1 1 1 2 2 2 2 2 0 1 1 2 2 1 1 2 2 4 3 2 1 1 0 1 1 1 1 1 2 2 2 2 2 2 3 3 3 3 3 3 3
2 1 1 1 1 1 1 2 1 2 1 0 1 2 1 0 2 3 4 3 2 1 0 0 0 0 1 2 2 1 2 2 2 2 2 2 2 2 3 4 3 4 3
1 1 2 2 1 1 1 1 2 2 1 1 0 0 1 3 2 1 1 1 1 0 0 0 1 1 1 1 1 1 2 2 2 2 2 3 3 2 3 4 3 3 3
1 1 1 1 1 1 1 2 2 2 2 2 2 2 4 3 2 2 2 1 1 1 1 1 1 1 1 1 1 1 2 2 2 2 2 3 3 3 3 3 3 3 3
1 1 2 2 1 2 2 2 2 2 2 2 1 1 4 2 1 1 1 1 2 2 1 1 1 0 1 0 0 0 1 1 2 2 3 3 3 3 4 3 3 3 3
2 2 2 1 2 2 2 1 1 2 2 2 2 2 2 2 2 2 2 2 1 1 1 1 1 0 0 1 1 1 1 1 2 2 2 3 3 3 3 3 4 4 4
2 2 2 2 2 1 1 2 2 2 2 2 1 2 2 3 2 2 2 1 1 1 1 1 2 2 2 1 1 1 0 1 1 2 2 2 3 3 3 3 3 4 4
2 2 2 2 2 2 2 2 2 2 2 2 2 2 2 2 2 1 1 1 1 1 1 1 1 2 2 2 1 0 1 2 2 2 2 1 2 3 3 4 4 4 4
2 2 2 2 2 2 2 2 2 2 2 2 2 2 2 2 2 2 2 1 1 1 1 1 2 2 2 1 1 0 1 2 3 3 2 1 2 3 3 3 4 4 4
Wind_Direction
167 166 161 163 167 161 169 182 189 191 180 184 189 190 190 190 197 198 239 242 236 262 268 243 260 254 254 255 226 232 230 204 243 272 263 263 229 242 239 232 227 223 231
170 152 153 153 158 169 184 198 187 191 191 188 181 193 202 194 194 200 234 252 239 249 258 254 263 264 269 267 253 249 242 223 217 264 283 280 242 231 227 235 242 236 235
154 150 157 167 174 189 195 195 184 178 171 162 151 177 202 200 196 217 217 243 242 244 243 241 256 258 264 262 260 261 263 261 227 239 272 277 267 250 251 262 262 262 251
148 156 167 186 196 199 193 190 190 177 166 173 174 191 201 196 193 231 231 228 242 259 256 246 244 239 240 240 247 251 255 262 262 254 269 289 288 279 203 252 280 268 263
148 161 186 190 184 184 185 195 189 178 181 170 138 133 173 170 222 229 227 213 232 269 287 274 257 254 249 237 242 250 245 246 252 256 270 299 299 307 256 242 255 274 270
144 167 183 175 172 180 188 188 177 175 171 136 137 140 87 354 38 59 145 209 221 240 281 296 290 289 298 267 248 246 219 225 238 240 250 254 260 254 256 248 251 282 284
126 144 154 161 167 184 179 150 161 178 157 149 162 161 182 259 62 89 93 157 229 262 263 280 298 307 299 288 288 289 276 253 234 226 237 248 248 240 229 250 242 240 253
147 154 162 150 166 168 144 149 165 155 158 165 175 190 198 269 9 26 111 206 249 264 257 239 247 282 303 287 278 290 289 289 273 244 235 250 252 241 219 221 230 256 282
160 184 179 163 154 157 166 180 181 156 166 179 177 180 196 272 344 356 48 315 290 285 283 266 234 259 302 309 277 282 296 302 304 288 270 280 286 274 246 200 256 265 287
220 213 191 167 164 180 189 191 191 166 186 195 212 213 203 263 1 15 17 289 294 291 294 289 284 283 294 297 236 245 270 284 310 328 319 310 299 300 285 222 213 222 252
212 215 197 189 183 185 185 193 186 179 177 184 201 241 227 259 311 352 13 174 245 278 296 304 309 322 314 297 246 235 253 263 285 293 298 300 302 297 280 251 228 208 218
162 171 204 229 196 164 160 178 181 174 173 186 197 287 281 280 302 305 335 333 262 229 266 281 298 318 317 319 300 288 291 306 315 318 316 311 298 289 281 267 251 240 232
143 186 229 241 232 200 182 188 193 185 185 204 206 234 280 306 317 332 341 332 341 266 269 295 316 324 323 324 336 339 345 0 335 319 304 295 287 280 285 287 281 271 273
173 217 238 224 227 230 205 190 189 198 197 203 208 215 234 266 305 328 339 333 335 340 329 328 341 347 355 353 355 356 4 319 259 267 285 292 304 310 298 280 274 283 290
196 212 227 234 222 224 230 215 198 204 192 191 203 196 196 233 251 226 196 270 264 270 356 31 29 22 12 0 351 339 342 354 337 313 304 305 306 306 296 286 269 271 264
219 230 224 218 208 200 203 300 35 158 183 174 167 167 202 218 218 214 220 242 243 122 105 64 360 352 343 336 330 330 336 332 320 318 314 306 306 305 303 304 296 277 272
217 231 231 218 203 195 189 178 165 4 26 143 166 166 156 168 172 166 137 115 108 115 96 76 9 345 336 333 325 325 327 316 323 330 318 315 314 314 313 314 314 308 293
207 217 201 208 202 192 188 176 164 161 143 341 309 233 216 161 111 105 100 92 69 63 81 111 234 311 324 312 314 323 321 328 332 325 319 322 324 322 320 316 313 307 299
195 198 197 194 184 172 163 155 157 158 152 129 16 357 298 175 75 73 96 96 110 99 78 28 317 308 320 307 305 312 314 313 320 325 324 319 321 326 320 313 311 314 311
211 200 174 167 153 144 149 151 163 165 154 143 153 231 75 79 70 70 98 111 118 140 173 225 268 278 289 310 325 333 332 329 335 332 325 323 323 323 313 311 312 313 313
198 192 130 127 146 149 153 166 169 166 168 179 206 195 157 146 167 177 186 198 201 204 215 230 240 265 292 314 334 6 357 341 345 344 337 334 335 330 319 315 318 317 316
167 169 164 158 160 156 165 180 174 171 179 184 196 172 165 154 170 188 207 220 221 217 206 187 198 255 267 264 286 42 34 359 345 340 331 329 329 326 320 325 330 326 325
175 171 158 160 176 175 176 183 175 171 176 185 182 164 169 187 191 195 207 217 207 203 194 167 163 195 12 69 95 123 127 293 296 301 311 316 318 318 315 313 315 317 319
181 192 191 183 171 164 178 195 194 190 189 193 189 189 184 191 195 200 203 201 189 183 177 165 162 164 141 105 82 71 46 300 300 288 285 294 307 306 306 307 308 309 311
189 194 196 198 188 190 201 209 207 202 196 189 187 194 191 175 179 187 192 203 176 176 178 158 148 150 138 120 111 21 324 322 318 317 306 309 308 306 307 307 305 310 313
178 184 192 193 185 189 185 184 195 199 197 194 184 183 175 172 181 186 183 182 183 179 168 155 146 139 137 135 125 34 325 320 318 319 316 305 304 302 306 304 308 311 313